| time (UTC) | temp C | wind direction | speed KPH | gust KPH | rain 1hr cm | rain 24hr cm | rain mn cm | humidity % | barometer mb |
| 20260510161803 | 12 | 249 | 3.2 | 9.7 | 0.00 | 0.00 | 0.00 | 61 | 1018.5 |
| 20260510160908 | 12 | 100 | 1.6 | 4.8 | 0.00 | 0.00 | 0.00 | 60 | 1018.5 |
| 20260510160003 | 12 | 56 | 3.2 | 6.4 | 0.00 | 0.00 | 0.00 | 60 | 1018.7 |
| 20260510155403 | 12 | 150 | 1.6 | 9.7 | 0.00 | 0.00 | 0.00 | 61 | 1018.8 |
| 20260510154503 | 12 | 16 | 3.2 | 9.7 | 0.00 | 0.00 | 0.00 | 62 | 1018.7 |
| 20260510153603 | 12 | 82 | 1.6 | 4.8 | 0.00 | 0.00 | 0.00 | 62 | 1018.6 |
| 20260510152703 | 12 | 55 | 1.6 | 4.8 | 0.00 | 0.00 | 0.00 | 62 | 1019.1 |
| 20260510151803 | 12 | 99 | 3.2 | 9.7 | 0.00 | 0.00 | 0.00 | 63 | 1019.3 |
| 20260510150903 | 12 | 65 | 3.2 | 11.3 | 0.00 | 0.00 | 0.00 | 62 | 1019.1 |
| 20260510150003 | 12 | 354 | 1.6 | 6.4 | 0.00 | 0.00 | 0.00 | 63 | 1019.4 |
| 20260510145403 | 12 | 18 | 1.6 | 6.4 | 0.00 | 0.00 | 0.00 | 64 | 1019.2 |
| 20260510144503 | 11 | 86 | 3.2 | 4.8 | 0.00 | 0.00 | 0.00 | 65 | 1019.3 |
| 20260510143603 | 11 | 144 | 3.2 | 6.4 | 0.00 | 0.00 | 0.00 | 66 | 1019.4 |
| 20260510142704 | 11 | 57 | 4.8 | 12.9 | 0.00 | 0.00 | 0.00 | 67 | 1019.6 |
| 20260510141803 | 11 | 42 | 3.2 | 14.5 | 0.00 | 0.00 | 0.00 | 67 | 1019.5 |
| 20260510140903 | 11 | 57 | 3.2 | 6.4 | 0.00 | 0.00 | 0.00 | 67 | 1019.7 |
| 20260510140005 | 11 | 139 | 3.2 | 9.7 | 0.00 | 0.00 | 0.00 | 66 | 1019.7 |
| 20260510135403 | 11 | 52 | 3.2 | 9.7 | 0.00 | 0.00 | 0.00 | 67 | 1019.6 |
| 20260510134503 | 11 | 1 | 3.2 | 9.7 | 0.00 | 0.00 | 0.00 | 68 | 1020.0 |
| 20260510133603 | 11 | 18 | 3.2 | 11.3 | 0.00 | 0.00 | 0.00 | 69 | 1019.9 |
| 20260510132703 | 11 | 79 | 3.2 | 9.7 | 0.00 | 0.00 | 0.00 | 69 | 1019.8 |
| 20260510131803 | 12 | 47 | 3.2 | 9.7 | 0.00 | 0.00 | 0.00 | 68 | 1019.8 |
| 20260510130903 | 11 | 6 | 1.6 | 4.8 | 0.00 | 0.00 | 0.00 | 68 | 1020.0 |
| 20260510130218 | 11 | 151 | 1.6 | 9.7 | 0.00 | 0.00 | 0.00 | 70 | 1020.0 |
| 20260510125403 | 11 | 4 | 3.2 | 6.4 | 0.00 | 0.00 | 0.00 | 71 | 1020.1 |
| 20260510124717 | 11 | 332 | 4.8 | 12.9 | 0.00 | 0.00 | 0.00 | 70 | 1020.0 |
| 20260510123603 | 11 | 334 | 1.6 | 4.8 | 0.00 | 0.00 | 0.00 | 71 | 1020.2 |
| 20260510122703 | 11 | 332 | 1.6 | 9.7 | 0.00 | 0.00 | 0.00 | 71 | 1020.2 |
| 20260510121803 | 11 | 63 | 3.2 | 6.4 | 0.00 | 0.00 | 0.00 | 71 | 1020.2 |
| 20260510120904 | 11 | 347 | 3.2 | 11.3 | 0.00 | 0.00 | 0.00 | 73 | 1020.4 |
| 20260510120003 | 11 | 16 | 3.2 | 9.7 | 0.00 | 0.00 | 0.00 | 72 | 1020.4 |
| 20260510115403 | 11 | 46 | 3.2 | 9.7 | 0.00 | 0.00 | 0.00 | 72 | 1020.4 |
| 20260510114503 | 11 | 71 | 3.2 | 6.4 | 0.00 | 0.00 | 0.00 | 71 | 1020.7 |
| 20260510113603 | 12 | 13 | 3.2 | 9.7 | 0.00 | 0.00 | 0.00 | 73 | 1020.5 |
| 20260510112703 | 11 | 1 | 3.2 | 14.5 | 0.00 | 0.00 | 0.00 | 73 | 1020.7 |
| 20260510111803 | 11 | 358 | 3.2 | 12.9 | 0.00 | 0.00 | 0.00 | 74 | 1020.9 |
| 20260510110904 | 11 | 102 | 3.2 | 9.7 | 0.00 | 0.00 | 0.00 | 76 | 1020.9 |
| 20260510110003 | 11 | 6 | 3.2 | 9.7 | 0.00 | 0.00 | 0.00 | 76 | 1020.9 |
| 20260510105617 | 11 | 355 | 3.2 | 9.7 | 0.00 | 0.00 | 0.00 | 76 | 1021.0 |
| 20260510104718 | 11 | 78 | 3.2 | 4.8 | 0.00 | 0.00 | 0.00 | 75 | 1021.3 |
| 20260510103603 | 10 | 44 | 3.2 | 11.3 | 0.00 | 0.00 | 0.00 | 76 | 1021.1 |
| 20260510102703 | 10 | 80 | 3.2 | 9.7 | 0.00 | 0.00 | 0.00 | 77 | 1021.0 |
| 20260510101803 | 11 | 358 | 1.6 | 6.4 | 0.00 | 0.00 | 0.00 | 77 | 1021.0 |
| 20260510100903 | 10 | 75 | 1.6 | 9.7 | 0.00 | 0.00 | 0.00 | 77 | 1021.1 |
| 20260510100003 | 11 | 66 | 3.2 | 6.4 | 0.00 | 0.00 | 0.00 | 77 | 1021.1 |
| 20260510095616 | 11 | 39 | 1.6 | 6.4 | 0.00 | 0.00 | 0.00 | 77 | 1021.2 |
| 20260510094503 | 10 | 61 | 3.2 | 9.7 | 0.00 | 0.00 | 0.00 | 78 | 1021.2 |
| 20260510093603 | 10 | 81 | 3.2 | 11.3 | 0.00 | 0.00 | 0.00 | 80 | 1021.3 |
| 20260510092703 | 10 | 5 | 1.6 | 4.8 | 0.00 | 0.00 | 0.00 | 79 | 1021.2 |
| 20260510092020 | 10 | 45 | 1.6 | 4.8 | 0.00 | 0.00 | 0.00 | 79 | 1021.2 |
| 20260510090903 | 10 | 314 | 3.2 | 11.3 | 0.00 | 0.00 | 0.00 | 78 | 1021.4 |
| 20260510090003 | 10 | 92 | 3.2 | 9.7 | 0.00 | 0.00 | 0.00 | 78 | 1021.3 |
| 20260510085618 | 10 | 76 | 3.2 | 11.3 | 0.00 | 0.00 | 0.00 | 78 | 1021.4 |
| 20260510084503 | 10 | 68 | 3.2 | 11.3 | 0.00 | 0.00 | 0.00 | 79 | 1021.6 |
| 20260510083603 | 10 | 59 | 3.2 | 6.4 | 0.00 | 0.00 | 0.00 | 78 | 1021.7 |
| 20260510082918 | 10 | 106 | 3.2 | 6.4 | 0.00 | 0.00 | 0.00 | 78 | 1021.6 |
| 20260510081803 | 10 | 6 | 3.2 | 11.3 | 0.00 | 0.00 | 0.00 | 78 | 1021.7 |
| 20260510080903 | 9 | 53 | 3.2 | 9.7 | 0.00 | 0.00 | 0.00 | 81 | 1021.6 |
| 20260510080003 | 9 | 352 | 3.2 | 11.3 | 0.00 | 0.00 | 0.00 | 82 | 1021.4 |
| 20260510075403 | 9 | 348 | 3.2 | 11.3 | 0.00 | 0.00 | 0.00 | 81 | 1021.8 |
| 20260510074503 | 9 | 36 | 3.2 | 14.5 | 0.00 | 0.00 | 0.00 | 82 | 1021.7 |
| 20260510073603 | 9 | 82 | 1.6 | 9.7 | 0.00 | 0.00 | 0.00 | 82 | 1021.7 |
| 20260510072703 | 9 | 30 | 3.2 | 6.4 | 0.00 | 0.00 | 0.00 | 83 | 1021.6 |
| 20260510071804 | 9 | 81 | 3.2 | 6.4 | 0.00 | 0.00 | 0.00 | 83 | 1021.8 |
| 20260510070903 | 8 | 181 | 3.2 | 14.5 | 0.00 | 0.00 | 0.00 | 84 | 1021.8 |
| 20260510070003 | 8 | 4 | 3.2 | 11.3 | 0.00 | 0.00 | 0.00 | 84 | 1021.3 |
| 20260510065617 | 8 | 32 | 3.2 | 11.3 | 0.00 | 0.00 | 0.00 | 84 | 1021.6 |
| 20260510064717 | 8 | 359 | 3.2 | 9.7 | 0.00 | 0.00 | 0.00 | 85 | 1021.1 |
| 20260510063603 | 8 | 350 | 4.8 | 12.9 | 0.00 | 0.00 | 0.00 | 85 | 1021.3 |
| 20260510062703 | 8 | 19 | 3.2 | 14.5 | 0.00 | 0.00 | 0.00 | 85 | 1021.2 |
| 20260510061803 | 8 | 75 | 3.2 | 14.5 | 0.00 | 0.00 | 0.00 | 86 | 1021.2 |
| 20260510061118 | 8 | 82 | 3.2 | 12.9 | 0.00 | 0.00 | 0.00 | 86 | 1021.3 |
| 20260510060003 | 8 | 65 | 1.6 | 6.4 | 0.00 | 0.00 | 0.00 | 86 | 1021.3 |
| 20260510055403 | 8 | 64 | 1.6 | 4.8 | 0.00 | 0.00 | 0.00 | 87 | 1021.2 |
| 20260510054503 | 8 | 17 | 3.2 | 9.7 | 0.00 | 0.00 | 0.00 | 87 | 1021.0 |
| 20260510053603 | 8 | 89 | 3.2 | 11.3 | 0.00 | 0.00 | 0.00 | 87 | 1021.2 |
| 20260510052703 | 8 | 274 | 3.2 | 12.9 | 0.00 | 0.00 | 0.00 | 87 | 1021.1 |
| 20260510051803 | 8 | 350 | 3.2 | 12.9 | 0.00 | 0.00 | 0.00 | 88 | 1021.2 |
| 20260510050904 | 8 | 352 | 3.2 | 11.3 | 0.00 | 0.00 | 0.00 | 87 | 1021.2 |
| 20260510050217 | 8 | 54 | 3.2 | 6.4 | 0.00 | 0.00 | 0.00 | 87 | 1021.2 |
| 20260510045403 | 8 | 3 | 3.2 | 11.3 | 0.00 | 0.00 | 0.00 | 88 | 1021.2 |
| 20260510044503 | 8 | 61 | 3.2 | 11.3 | 0.00 | 0.00 | 0.00 | 88 | 1021.4 |
| 20260510043603 | 8 | 165 | 3.2 | 6.4 | 0.00 | 0.00 | 0.00 | 89 | 1021.3 |
| 20260510042703 | 8 | 37 | 3.2 | 11.3 | 0.00 | 0.00 | 0.00 | 89 | 1020.9 |
| 20260510041803 | 8 | 46 | 3.2 | 11.3 | 0.00 | 0.00 | 0.00 | 88 | 1021.3 |
| 20260510040903 | 8 | 326 | 1.6 | 4.8 | 0.00 | 0.00 | 0.00 | 88 | 1021.2 |
| 20260510040003 | 8 | 32 | 1.6 | 6.4 | 0.00 | 0.00 | 0.00 | 88 | 1021.4 |
| 20260510035403 | 8 | 40 | 1.6 | 6.4 | 0.00 | 0.00 | 0.00 | 88 | 1021.4 |
| 20260510034504 | 8 | 65 | 1.6 | 6.4 | 0.00 | 0.00 | 0.00 | 88 | 1021.2 |
| 20260510033603 | 8 | 79 | 3.2 | 9.7 | 0.00 | 0.00 | 0.00 | 88 | 1021.4 |
| 20260510032704 | 8 | 348 | 3.2 | 11.3 | 0.00 | 0.00 | 0.00 | 88 | 1021.6 |
| 20260510032017 | 8 | 357 | 3.2 | 12.9 | 0.00 | 0.00 | 0.00 | 87 | 1021.3 |
| 20260510030904 | 8 | 354 | 3.2 | 12.9 | 0.00 | 0.00 | 0.00 | 88 | 1021.4 |
| 20260510030003 | 8 | 38 | 3.2 | 11.3 | 0.00 | 0.00 | 0.00 | 88 | 1021.6 |
| 20260510025403 | 8 | 338 | 3.2 | 14.5 | 0.00 | 0.00 | 0.00 | 88 | 1021.6 |
| 20260510024503 | 8 | 343 | 3.2 | 14.5 | 0.00 | 0.00 | 0.00 | 88 | 1021.8 |
| 20260510023603 | 8 | 355 | 3.2 | 14.5 | 0.00 | 0.00 | 0.00 | 88 | 1021.7 |
| 20260510022703 | 8 | 24 | 1.6 | 9.7 | 0.00 | 0.00 | 0.00 | 87 | 1021.7 |
| 20260510021803 | 8 | 350 | 3.2 | 9.7 | 0.00 | 0.00 | 0.00 | 87 | 1021.6 |
| 20260510020903 | 7 | 3 | 3.2 | 11.3 | 0.00 | 0.00 | 0.00 | 87 | 1021.7 |
| 20260510020003 | 7 | 63 | 3.2 | 9.7 | 0.00 | 0.00 | 0.00 | 87 | 1021.7 |
| 20260510015403 | 7 | 360 | 3.2 | 9.7 | 0.00 | 0.00 | 0.00 | 87 | 1022.0 |
| 20260510014503 | 8 | 342 | 3.2 | 11.3 | 0.00 | 0.00 | 0.00 | 86 | 1021.9 |
| 20260510013603 | 8 | 26 | 3.2 | 11.3 | 0.00 | 0.00 | 0.00 | 87 | 1021.7 |
| 20260510012917 | 8 | 20 | 3.2 | 12.9 | 0.00 | 0.00 | 0.00 | 87 | 1021.9 |
| 20260510011803 | 8 | 50 | 3.2 | 11.3 | 0.00 | 0.00 | 0.00 | 87 | 1021.8 |
| 20260510010903 | 8 | 47 | 1.6 | 6.4 | 0.00 | 0.00 | 0.00 | 88 | 1021.8 |
| 20260510010003 | 8 | 349 | 1.6 | 4.8 | 0.00 | 0.00 | 0.00 | 88 | 1021.7 |
| 20260510005403 | 8 | 346 | 1.6 | 4.8 | 0.00 | 0.00 | 0.00 | 88 | 1021.7 |
| 20260510004503 | 8 | 23 | 1.6 | 4.8 | 0.00 | 0.00 | 0.00 | 88 | 1021.8 |
| 20260510003603 | 8 | 87 | 1.6 | 6.4 | 0.00 | 0.00 | 0.00 | 88 | 1021.8 |
| 20260510002917 | 8 | 39 | 1.6 | 6.4 | 0.00 | 0.00 | 0.00 | 88 | 1021.9 |
| 20260510001803 | 8 | 328 | 1.6 | 4.8 | 0.00 | 0.00 | 0.00 | 87 | 1021.8 |
| 20260510000903 | 8 | 46 | 1.6 | 6.4 | 0.00 | 0.00 | 0.00 | 86 | 1021.8 |
| 20260510000003 | 8 | 338 | 3.2 | 9.7 | 0.00 | 0.00 | 0.00 | 85 | 1021.8 |
| 20260509235403 | 9 | 322 | 1.6 | 6.4 | 0.00 | 0.00 | 0.00 | 83 | 1021.9 |
| 20260509234503 | 9 | 17 | 1.6 | 11.3 | 0.00 | 0.00 | 0.00 | 81 | 1022.0 |
| 20260509233603 | 9 | 341 | 1.6 | 9.7 | 0.00 | 0.00 | 0.00 | 79 | 1021.7 |
| 20260509232703 | 9 | 3 | 1.6 | 9.7 | 0.00 | 0.00 | 0.00 | 76 | 1021.8 |
| 20260509231803 | 10 | 34 | 1.6 | 6.4 | 0.00 | 0.00 | 0.00 | 73 | 1021.9 |
| 20260509231117 | 10 | 7 | 1.6 | 6.4 | 0.00 | 0.00 | 0.00 | 68 | 1021.8 |
| 20260509230004 | 10 | 99 | 1.6 | 6.4 | 0.00 | 0.00 | 0.00 | 63 | 1021.8 |
| 20260509225403 | 10 | 122 | 1.6 | 4.8 | 0.00 | 0.00 | 0.00 | 62 | 1021.8 |
| 20260509224503 | 10 | 295 | 1.6 | 9.7 | 0.00 | 0.00 | 0.00 | 61 | 1021.7 |
| 20260509223603 | 11 | 358 | 1.6 | 4.8 | 0.00 | 0.00 | 0.00 | 62 | 1021.7 |
| 20260509222703 | 11 | 342 | 0.0 | 3.2 | 0.00 | 0.00 | 0.00 | 65 | 1021.9 |
| 20260509221803 | 11 | 357 | 0.0 | 1.6 | 0.00 | 0.00 | 0.00 | 65 | 1021.8 |
| 20260509220903 | 11 | 35 | 0.0 | 1.6 | 0.00 | 0.00 | 0.00 | 65 | 1021.9 |
| 20260509220218 | 11 | 0 | 0.0 | 0.0 | 0.00 | 0.00 | 0.00 | 65 | 1021.7 |
| 20260509215403 | 11 | 0 | 0.0 | 0.0 | 0.00 | 0.00 | 0.00 | 64 | 1021.3 |
| 20260509214503 | 11 | 89 | 0.0 | 1.6 | 0.00 | 0.00 | 0.00 | 63 | 1021.3 |
| 20260509213603 | 11 | 0 | 0.0 | 0.0 | 0.00 | 0.00 | 0.00 | 62 | 1021.2 |
| 20260509212704 | 11 | 0 | 0.0 | 0.0 | 0.00 | 0.00 | 0.00 | 61 | 1021.1 |
| 20260509211803 | 11 | 0 | 0.0 | 0.0 | 0.00 | 0.00 | 0.00 | 61 | 1021.4 |
| 20260509210903 | 12 | 184 | 0.0 | 1.6 | 0.00 | 0.00 | 0.00 | 59 | 1021.4 |
| 20260509210003 | 12 | 170 | 0.0 | 1.6 | 0.00 | 0.00 | 0.00 | 59 | 1021.2 |
| 20260509205403 | 12 | 0 | 0.0 | 0.0 | 0.00 | 0.00 | 0.00 | 60 | 1021.1 |
| 20260509204503 | 12 | 201 | 0.0 | 1.6 | 0.00 | 0.00 | 0.00 | 60 | 1021.2 |
| 20260509203603 | 12 | 201 | 0.0 | 1.6 | 0.00 | 0.00 | 0.00 | 59 | 1021.0 |
| 20260509202704 | 13 | 122 | 0.0 | 1.6 | 0.00 | 0.00 | 0.00 | 58 | 1020.8 |
| 20260509202019 | 13 | 0 | 0.0 | 0.0 | 0.00 | 0.00 | 0.00 | 58 | 1021.0 |
| 20260509200903 | 13 | 179 | 0.0 | 3.2 | 0.00 | 0.00 | 0.00 | 57 | 1020.6 |
| 20260509200003 | 13 | 189 | 0.0 | 1.6 | 0.00 | 0.00 | 0.00 | 59 | 1020.7 |
| 20260509195617 | 13 | 0 | 0.0 | 0.0 | 0.00 | 0.00 | 0.00 | 58 | 1020.5 |
| 20260509194503 | 14 | 194 | 0.0 | 3.2 | 0.00 | 0.00 | 0.00 | 56 | 1020.4 |
| 20260509193818 | 14 | 182 | 0.0 | 3.2 | 0.00 | 0.00 | 0.00 | 55 | 1020.6 |
| 20260509192703 | 15 | 118 | 0.0 | 4.8 | 0.00 | 0.00 | 0.00 | 55 | 1020.2 |
| 20260509191803 | 15 | 133 | 0.0 | 1.6 | 0.00 | 0.00 | 0.00 | 55 | 1020.1 |
| 20260509190903 | 15 | 173 | 0.0 | 3.2 | 0.00 | 0.00 | 0.00 | 54 | 1020.3 |
| 20260509190217 | 16 | 127 | 0.0 | 3.2 | 0.00 | 0.00 | 0.00 | 54 | 1020.2 |
| 20260509185403 | 16 | 128 | 1.6 | 3.2 | 0.00 | 0.00 | 0.00 | 53 | 1019.9 |
| 20260509184718 | 16 | 130 | 0.0 | 3.2 | 0.00 | 0.00 | 0.00 | 53 | 1019.9 |
| 20260509183817 | 17 | 141 | 0.0 | 3.2 | 0.00 | 0.00 | 0.00 | 52 | 1019.8 |
| 20260509182704 | 17 | 99 | 0.0 | 1.6 | 0.00 | 0.00 | 0.00 | 51 | 1019.7 |
| 20260509181803 | 17 | 97 | 0.0 | 3.2 | 0.00 | 0.00 | 0.00 | 49 | 1019.8 |
| 20260509180903 | 18 | 82 | 1.6 | 4.8 | 0.00 | 0.00 | 0.00 | 47 | 1019.7 |
| 20260509180003 | 18 | 87 | 0.0 | 3.2 | 0.00 | 0.00 | 0.00 | 45 | 1019.5 |
| 20260509175403 | 18 | 88 | 0.0 | 4.8 | 0.00 | 0.00 | 0.00 | 45 | 1019.6 |
| 20260509174503 | 18 | 80 | 1.6 | 3.2 | 0.00 | 0.00 | 0.00 | 45 | 1019.4 |
| 20260509173603 | 19 | 100 | 1.6 | 4.8 | 0.00 | 0.00 | 0.00 | 44 | 1019.6 |
| 20260509172703 | 20 | 92 | 1.6 | 4.8 | 0.00 | 0.00 | 0.00 | 43 | 1019.3 |
| 20260509172020 | 19 | 76 | 1.6 | 4.8 | 0.00 | 0.00 | 0.00 | 43 | 1019.5 |
| 20260509170903 | 19 | 103 | 1.6 | 3.2 | 0.00 | 0.00 | 0.00 | 44 | 1019.5 |
| 20260509170003 | 20 | 99 | 1.6 | 3.2 | 0.00 | 0.00 | 0.00 | 41 | 1019.7 |
| 20260509165403 | 20 | 147 | 1.6 | 3.2 | 0.00 | 0.00 | 0.00 | 42 | 1019.9 |
| 20260509164503 | 20 | 81 | 1.6 | 3.2 | 0.00 | 0.00 | 0.00 | 42 | 1019.6 |
| 20260509163816 | 20 | 81 | 1.6 | 3.2 | 0.00 | 0.00 | 0.00 | 43 | 1019.8 |
| 20260509162703 | 19 | 53 | 1.6 | 3.2 | 0.00 | 0.00 | 0.00 | 44 | 1019.7 |